Home > Weather > Herat > Past weeks

Flag for Afghanistan Past Weather in Herat, Afghanistan — Yesterday and Last 2 Weeks

Now
91 °F

Sunny.


Feels Like: 89 °F
Forecast: 69 / 93 °F
Wind: 15 mph from North

Location: Herat Airport

Current Time: Aug 27, 2016 at 12:58:52 PM

Latest Report: Aug 27, 2016 at 12:25 PM


Visibility: 10 mi

Pressure: 29.98 "Hg (27.00 "Hg at 937m altitude)

Humidity: 28%

Dew Point: 54 °F

Location of HeratLocation

Past Weather in Herat — Graph

°F

Herat Temperature Yesterday

Maximum temperature yesterday: 93 °F (at 2:25 PM)
Minimum temperature yesterday: 66 °F (at 6:25 AM)
Average temperature yesterday: 84 °F

High & Low Weather Summary for the Past Weeks

 TemperatureHumidityPressure
High99 °F (Aug 12, 3:25 PM)46% (Aug 17, 6:25 AM)30.01 "Hg (Aug 17, 6:25 AM)
Low64 °F (Aug 17, 6:25 AM)22% (Aug 12, 3:25 PM)29.77 "Hg (Aug 14, 3:25 PM)
Average85 °F32%29.88 "Hg
* Reported Aug 12 11:25 AM — Aug 27 11:25 AM, Herat, Weather by CustomWeather, © 2016

Note: Actual official high and low records may vary slightly from our data, if they occured in-between our weather recording intervals... More about our weather records

Advertising

Herat Weather History for the Previous 24 Hours

Scroll right to see more
 ConditionsComfort  
Time TempWeatherWind HumidityBarometerVisibility
11:25 AM
Sat, Aug 27
88 °FSunny.7 mph29%29.98 "Hg10 mi
10:25 AM86 °FSunny.1 mph29%30.01 "Hg10 mi
9:25 AM84 °FSunny.3 mph31%30.01 "Hg10 mi
8:25 AM79 °FSunny.No wind32%30.01 "Hg10 mi
7:25 AM72 °FSunny.No wind36%30.01 "Hg10 mi
6:25 AM66 °FSunny.6 mph37%29.98 "Hg10 mi
9:25 PM
Fri, Aug 26
79 °FClear.6 mph30%30.01 "Hg10 mi
8:25 PM81 °FClear.6 mph30%29.98 "Hg10 mi
7:25 PM82 °FClear.N/A30%29.95 "Hg10 mi
6:25 PM86 °FSunny.16 mph29%29.92 "Hg10 mi
5:25 PM90 °FSunny.15 mph27%29.92 "Hg10 mi
4:25 PM91 °FSunny.16 mph26%29.89 "Hg10 mi
3:25 PM93 °FSunny.9 mph28%29.89 "Hg10 mi
2:25 PM93 °FSunny.10 mph28%29.92 "Hg10 mi
1:25 PM91 °FSunny.3 mph30%29.92 "Hg10 mi
12:25 PM91 °FSunny.7 mph30%29.95 "Hg10 mi
Weather by CustomWeather, © 2016

See weather overviewHow to use our weather pages